OPS 4682 DEB, 18270

Orbit data source: Space-Track

OPS 4682 DEB, 18270 is space debris in LEO originally from a launch on Sat, 03 Apr 1965 UTC launched from the Air Force Western Test Range (AFWTR). Debris objects in space refer to the collection of defunct objects orbiting the Earth. Examples of debris include non-operational satellites, rocket bodies, and fragments generated from explosions, collisions, or faulty payload assembly.

Loading next visibility...
Identifier
18270, 1965-027Z
Orbit
LEO
Country
Flag of USUS
Related business
Manufacturer
Unknown
Mission
Spacecraft
Bus & Motor
Unknown
Mass
Unknown
Launch date (UTC)
1965-04-03 (61 years ago)
Launch vehicle
Unknown
Launch site
Air Force Western Test Range (AFWTR)
Object type
Payload
Rocket body
Debris
Shape & HBR
Unknown shape, 0.1 m
Radar Cross Section
Small (<0.1 m²)

Expand to show TLE details & history
Last TLE update: 20 hours ago

TLE from 20 hours ago
0 OPS 4682 DEB
1 18270U 65027Z   25340.78543167  .00000339  00000-0  11468-2 0  9990
2 18270  90.2309 355.5229 0028128 244.7311 295.8571 12.97093304891640
Epoch: 2025-12-06T18:51Z
TLE epoch observation values (Epoch: 2025-12-06T18:51:01.296Z)
Latitude
-0.41217°
Longitude
176.95766°
Altitude
1,267.091 km
Speed
7.226 km/s
True Right ascension
11h 42m 05s
True Declination
0° 24' 36"
Sunlit
Object was in daylight at epoch
Visualization orbit readout
Latitude
Unknown
Longitude
Unknown
Altitude
Unknown
Speed
Unknown
Apparent Right ascension
Unknown
Apparent Declination
Unknown
Sunlit
N/A
Visualization observer readout
Local Sidereal Time
12:44:37
Azimuth
Unknown
Elevation
Unknown
Doppler factor
Unknown
Orbital elements
Apogee altitude
1,292.142 km
Perigee altitude
1,249.113 km
Semi-major axis
7,648.765 km
Eccentricity
0.00281
Inclination
90.2309°
RAAN
355.5229°
Arg. of periapsis
244.7311°
True anomaly
295.5666°
Mean anomaly
295.8571°
Eccentric anomaly
295.7119°
Mean motion
3.24456 °/min
Orbital period
110.95 mins
BSTAR
0.0011468
Loading maneuver chart data...
Computing Atmospheric mass density...
Loading historical data...
Loading historical data...
Loading historical data...
Loading historical data...
Loading historical data...
Loading historical data...
Loading historical data...

Documentation

Showing up to 5 results
|